Regional Weather Roundup
Issued by NWS Charleston, SC

Current Version | Previous Version | Graphics & Text | Print | Product List | Glossary On
Versions: 1 2 3 4 5 6 7 8 9 10 11 12 13 14 15 16 17 18 19 20 21 22 23 24 25 26 27 28 29 30 31 32 33 34 35 36 37 38 39 40 41 42 43 44 45 46 47 48 49 50
000
ASUS42 KCHS 271828
RWRCHS

REGIONAL WEATHER ROUNDUP
NATIONAL WEATHER SERVICE CHARLESTON SC
200 PM EDT FRI MAY 27 2016

NOTE: "FAIR" INDICATES FEW OR NO CLOUDS BELOW 12,000 FEET WITH NO
SIGNIFICANT WEATHER AND/OR OBSTRUCTIONS TO VISIBILITY.

NOT ALL STATIONS ARE QUALITY CONTROLLED. USE DATA WITH CAUTION...
ESPECIALLY DEWPOINT OBSERVATIONS.

SCZ027-030-031-034>040-042>050-271900-
...SOUTHEAST SOUTH CAROLINA...

CITY           SKY/WX    TMP DP  RH WIND       PRES   REMARKS
N CHARLESTON   MOSUNNY   84  55  36 SE9       30.12F
6HR MIN TEMP:  73; 6HR MAX TEMP:  85;

WATERFRONT PRK   N/A     81  64  56 E10       30.11F
MOUNT PLEASANT FAIR      82  61  47 E7        30.13S
JOHNS ISLAND   FAIR      81  63  54 E10G17    30.12F
PINOPOLIS        N/A     88  57  35 E7        30.03F
MONCKS CORNER  FAIR      84  46  26 E10G16    30.10F
SUMMERVILLE    FAIR      84  59  42 E8        30.11F
BEAUFORT MCAS  SUNNY     83  59  44 E10       30.12F
6HR MIN TEMP:  74; 6HR MAX TEMP:  84;

BEAUFORT ARPT  FAIR      82  59  44 E6        30.11F
HILTON HEAD IS MOSUNNY   84  63  48 NE7       30.14F
WALTERBORO     PTCLDY    88  54  31 E13       30.11F
ALLENDALE      FAIR      84  59  42 SE12G18   30.08F

...SOUTHERN MIDLANDS AND PEE DEE...

CITY           SKY/WX    TMP DP  RH WIND       PRES   REMARKS
GEORGETOWN     FAIR      81  59  47 SE12      30.14F
KINGSTREE      MOCLDY    84  54  34 SE10      30.11F
ORANGEBURG     MOSUNNY   85  59  41 SE12      30.11F
6HR MIN TEMP:  69; 6HR MAX TEMP:  86;

BARNWELL       MOCLDY    90  64  43 E9        30.10F HX  91
AIKEN          FAIR      82  61  47 E5        30.13F
MANNING        FAIR      86  59  39 E7        30.11F
COLUMBIA       MOSUNNY   87  61  41 E12G17    30.10F
6HR MIN TEMP:  69; 6HR MAX TEMP:  87;

SUMTER         MOSUNNY   85  63  47 VRB3      30.10F
6HR MIN TEMP:  68; 6HR MAX TEMP:  85; 6HR PCP: TRACE;

FLORENCE       MOSUNNY   84  62  47 S10       30.12F
6HR MIN TEMP:  70; 6HR MAX TEMP:  86;

MYRTLE BEACH   MOSUNNY   81  59  47 SE12      30.16F
N MYRTLE BEACH SUNNY     79  62  56 SE9       30.14F
6HR MIN TEMP:  72; 6HR MAX TEMP:  81;


$$

GAZ063-065-086>088-099>101-113>116-118-119-134>141-150-271900-
...SOUTHEAST GEORGIA...

CITY           SKY/WX    TMP DP  RH WIND       PRES   REMARKS
SAVANNAH ARPT  MOSUNNY   84  55  36 E15G21    30.11F
6HR MIN TEMP:  71; 6HR MAX TEMP:  85;

HUNTER AAF     MOSUNNY   82  62  49 E14G21    30.09F
6HR MIN TEMP:  72; 6HR MAX TEMP:  83;

FORT STEWART   MOSUNNY   84  59  41 E6        30.07F
6HR MIN TEMP:  68; 6HR MAX TEMP:  84;

STATESBORO     SUNNY     85  60  42 E12G18    30.09F
SYLVANIA       PTCLDY    86  60  41 SE9G16    30.10F
CLAXTON        FAIR      86  60  40 E10G17    30.08F

...CSRA...CENTRAL AND FAR SOUTHEAST GEORGIA...

CITY           SKY/WX    TMP DP  RH WIND       PRES   REMARKS
THOMSON        MOSUNNY   87  64  46 E5        30.15F
AUGUSTA-BUSH   SUNNY     85  63  47 SE8       30.09F
6HR MIN TEMP:  66; 6HR MAX TEMP:  85;

AUGUSTA-DANIEL MOSUNNY   85  61  44 S8        30.11F
SWAINSBORO     FAIR      86  55  35 E7        30.09F
VIDALIA        SUNNY     86  55  35 SE12      30.08F
EASTMAN        FAIR      88  55  32 SE10      30.10F
HAZLEHURST     FAIR      87  54  32 SE9       30.07S
ALMA           MOSUNNY   83  60  45 SE9       30.08F
6HR MIN TEMP:  67; 6HR MAX TEMP:  84;

WAYCROSS       MOSUNNY   85  62  45 SE10G16   30.07F
JESUP          MOCLDY    79  61  53 E12       30.08F
BAXLEY         FAIR      86  59  39 S5        30.07F
BRUNSWICK      MOSUNNY   86  64  48 E10G21    30.10S
SAINT SIMONS   SUNNY     81  63  54 E14       30.10F
6HR MIN TEMP:  72; 6HR MAX TEMP:  82;


$$

SCZ027-028-034-036>038-045-046-048>050-GAZ119-141-271900-
...LAKE AND SUPPLEMENTAL COASTAL OBSERVATIONS...

STATION/POSITION TIME  TEMP    WIND        PRES    WAVE   SWELL
                       AIR SEA DIR/SP/G            HT/PER HT/PER/DIR
                 (UTC) (F)     (DEG/KT/KT) (MB)    (FT/S) (FT/S/D)
WINYAH BAY       1700   76     110/  8     1020.0
LAKE MURRAY      1800   84      CALM  /  1 1019.0F
ACE BASIN NERRS  1700   84      90/  3     1020.0F
FORT PULASKI     1800   76 77   80/ 12/ 15 1020.2F
SAPELO ISLAND    1800   82      80/ 10     1019.0F

$$

ANZ835-935-AMZ111-154-330-350-352-354-370-450-454-472-271900-
...C-MAN AND BUOY OBSERVATIONS...

STATION/POSITION TIME  TEMP    WIND        PRES    WAVE   SWELL
                       AIR SEA DIR/SP/G            HT/PER HT/PER/DIR
                 (UTC) (F)     (DEG/KT/KT) (MB)    (FT/S) (FT/S/D)
BUOY 41004       1750   76 77   50/ 14/ 16 1019.2F   3/ 6   2/ 7
BUOY 41008       1750   76 77   60/ 10/ 12 1019.4F   3/ 5   2/150/ 5
FOLLY BEACH CMAN 1800   79      70/  9/ 11 1020.5F
CAPERS NEARSHORE 1808   76 77   70/ 10/ 14 1020.0F
FRIPP NEARSHORE  1808   76 77   70/ 12/ 16 1019.3F


STATION/POSITION TIME  TEMP    WIND        PRES    WAVE   SWELL
                       AIR SEA DIR/SP/G            HT/PER HT/PER/DIR
                 (UTC) (F)     (DEG/KT/KT) (MB)    (FT/S) (FT/S/D)
5E ST. MARYS GA  1801      78                N/A     3/ 6
FRYING PAN BUOY  1800   76 76   60/ 10/ 12 1020.4F
BUOY 41025       1750   77 81  120/ 12/ 14 1021.6F   2/ 8   2/110/ 8
CAPE LOOKOUT NC  1800   76      90/  7/  8 1020.9F
BUOY 41002       1750   77 78   80/ 16/ 19 1018.8F   4/ 9   2/100/ 9
BUOY 41010       1720   77 78   40/ 16/ 19 1017.0F
ST AUGUSTINE FL  1800   77 79  100/ 12/ 13 1019.0F


$$




USA.gov is the U.S. government's official web portal to all federal, state and local government web resources and services.